Regional Weather Roundup
Issued by NWS Glasgow, MT

Home | Current Version | Previous Version | Text Only | Print | Product List | Glossary On
Versions: 1 2 3 4 5 6 7 8 9 10 11 12 13 14 15 16 17 18 19 20 21 22 23 24 25 26 27
000
ASUS45 KGGW 261515
RWRGGW
HOURLY REGIONAL WEATHER ROUNDUP FOR NORTHEAST MONTANA
NATIONAL WEATHER SERVICE GLASGOW MONTANA
900 AM MDT SAT MAY 26 2018

NOTE: "FAIR" INDICATES FEW OR NO CLOUDS BELOW 12,000 FEET WITH NO
SIGNIFICANT WEATHER AND/OR OBSTRUCTIONS TO VISISBILITY.

NORTHEAST MONTANA


CITY           SKY/WX    TMP DP  RH WIND       PRES   REMARKS
GLASGOW        PTSUNNY   71  55  56 SE6       29.78R
WOLF POINT     MOSUNNY   70  57  63 SW3       29.78R
JORDAN           N/A     66  56  70 S9        29.78R
SIDNEY         SUNNY     69  60  73 S9        29.79R
GLENDIVE       SUNNY     71  57  61 CALM      29.80S

FORT PECK REPORTS


CITY           SKY/WX    TMP DP  RH WIND       PRES   REMARKS

SOUTHEAST MONTANA


CITY           SKY/WX    TMP DP  RH WIND       PRES   REMARKS
BILLINGS       PTSUNNY   66  57  72 W3        29.80R
MILES CITY     MOSUNNY   72  58  61 E5        29.78R
BAKER          MOSUNNY   73  57  57 SE13      29.82F
LIVINGSTON     MOSUNNY   62  48  60 W13       29.86S

CENTRAL MONTANA


CITY           SKY/WX    TMP DP  RH WIND       PRES   REMARKS
HAVRE          PTSUNNY   68  54  60 W12       29.76R
LEWISTOWN      PTSUNNY   63  52  67 SW7       29.84R
GREAT FALLS    SUNNY     67  51  56 SW12      29.81F
CUT BANK       PTSUNNY   66  46  48 W13       29.80S
HELENA         SUNNY     63  51  65 VRB5      29.86S
BUTTE          MOSUNNY   52  46  80 CALM      29.95F
BOZEMAN        SUNNY     58  52  80 VRB5      29.90S

WESTERN MONTANA


CITY           SKY/WX    TMP DP  RH WIND       PRES   REMARKS
MISSOULA       PTSUNNY   57  53  86 VRB5      29.92R
KALISPELL      NOT AVBL

NORTH DAKOTA


CITY           SKY/WX    TMP DP  RH WIND       PRES   REMARKS
WILLISTON      SUNNY     71  56  58 S6        29.76F
DICKINSON      SUNNY     80  51  36 SW8       29.80S
MINOT          SUNNY     80  53  39 VRB7      29.75R
BISMARCK       SUNNY     76  57  51 VRB3      29.78S

SOUTHERN SASKATCHEWAN


CITY           SKY/WX    TMP DP  RH WIND       PRES   REMARKS
REGINA         PTSUNNY   68  57  68 VRB3      29.74F
ESTEVAN        MOSUNNY   75  55  50 CALM      29.75F
SWIFT CURRENT  MOSUNNY   77  48  36 SW16      29.71F





USA.gov is the U.S. government's official web portal to all federal, state and local government web resources and services.